Showing default

LAOSAT 1, 41034

Orbit data source: Space-Track

LAOSAT 1, 41034 is a Laotian payload satellite in GEO that was launched on Fri, 20 Nov 2015 UTC via a CHANG ZHENG 3B launch vehicle from the Xichang Space Center, China (XSC). Payload-class satellites include a variety of spacecraft equipped with specific instruments for various scientific and technological missions. These include communications satellites like Starlink; space stations such as the ISS; scientific satellites like the Hubble; Earth observation satellites from companies like Planet Labs, Umbra, and HawkEye 360; GPS; miniature CubeSats for education and research; and military/defense satellites.

Not visible in the next 10 days
Identifier
41034, 2015-067A
Orbit
GEO
Last TLE update
15 hours ago
Origin
Manufacturer
CAST
Mission
Operational Civil Communications
Bus & Motor
DFH-3B, DFH-4 LAE
Mass
~5,086 kg wet, ~2,500 kg dry
Launch date (UTC)
2015-11-20 (10 years ago)
Launch vehicle
CHANG ZHENG 3B
Launch site
Xichang Space Center, China (XSC)
Object type
Payload
Rocket body
Debris
Shape & HBR
Box + 2 Pan, 30 m
Radar Cross Section
34.063 m², Large (>1 m²)

Expand to show TLE details & history

TLE from 15 hours ago
0 LAOSAT 1
1 41034U 15067A   25186.51888719 -.00000327  00000-0  00000-0 0  9993
2 41034   0.0468 232.3180 0003001 191.2739 175.4673  1.00271607 35383
Epoch: 2025-07-05T12:27Z
TLE epoch observation values (Epoch: 2025-07-05T12:27:11.853Z)
Latitude
-0.01906°
Longitude
128.50958°
Altitude
35,798.769 km
Speed
3.074 km/s
True Right ascension
15h 56m 15s
True Declination
0° 01' 09"
Sunlit
Object was in daylight at epoch
Visualization orbit readout
Latitude
0.00136°
Longitude
-7.03875°
Altitude
35,776.466 km
Speed
3.075 km/s
Apparent Right ascension
06h 34m 02s
Apparent Declination
-5° 08' 30"
Sunlit
Object is in daylight
Visualization observer readout
Local Sidereal Time
15:19:28
Azimuth
295.311° NW
Elevation
-34.212°
Doppler factor
1
Orbital elements
Apogee altitude
35,800.369 km
Perigee altitude
35,775.061 km
Semi-major axis
42,165.852 km
Eccentricity
0.0003
Inclination
0.0468°
RAAN
232.318°
Arg. of periapsis
191.2739°
True anomaly
Unknown
Mean anomaly
175.4673°
Eccentric anomaly
Unknown
Mean motion
0.25067 °/min
Orbital period
1,436.15 mins
BSTAR
0
Loading historical data...
41034 neighbors
Loading maneuver chart data...
Loading SW <> Apogee altitude chart data...
Loading historical data...
Loading historical data...
Loading historical data...
Loading historical data...
Loading historical data...
Loading historical data...
Loading historical data...
Other satellites on launch #67 in the year 2015 (2015-11-20 UTC)

LAOSAT 1 Visibility

Observer location: undefined°, undefined°

LAOSAT 1 is likely not visible in the next few days
Span
Click to sort rows by Start time (UTC) header in descending order
Start Az.
Max El. time (UTC)
Max El. Az.
Max El.
End time (UTC)
End Az.
|